Location: Baia Mare
(47.6567°N, 23.5850°E)
Time: 11:59:05
(UTC+03:00)

ISS - Pass Details

Date: 20 May 2018
Orbit: 402 x 407 km, 51.6° (Epoch: 24 May)

Event Time Altitude Azimuth Distance (km) Brightness Sun altitude
Rises 04:14:25 0° 293° (WNW) 2,320 -0.2 -12.2°
Reaches altitude 10° 04:16:30 10° 293° (WNW) 1,458 -1.2 -11.9°
Maximum altitude 04:19:46 81° 205° (SSW) 412 -3.9 -11.6°
Drops below altitude 10° 04:23:01 10° 119° (ESE) 1,452 -0.8 -11.2°
Sets 04:25:06 0° 118° (ESE) 2,309 0.2 -11.0°
